Temperature
23 21 21 21 21 22 21 20 19 19 19 18 17 17 16 16 16 16 16 17 17 17 17 17 18 18 18 18 18 17 17 17 17 16 16 16 15 15 14 14 14 13 13 13
21 21 22 22 22 22 21 20 19 19 19 18 17 17 17 16 16 16 16 17 17 17 17 18 18 18 18 18 18 17 17 17 16 16 15 15 14 14 13 13 13 13 12 12
23 23 23 23 23 22 21 20 19 18 18 17 18 17 17 16 16 17 17 17 18 18 18 18 18 18 18 18 18 17 17 16 16 15 15 14 14 13 13 13 12 12 12 12
23 23 23 23 23 22 21 21 20 19 17 16 17 17 17 16 16 16 17 18 18 18 19 19 19 18 18 18 17 17 16 16 15 15 14 14 13 13 12 12 12 11 11 11
23 23 23 23 23 22 20 20 19 18 17 16 16 16 16 16 17 17 17 18 18 19 19 19 19 19 18 18 17 17 16 16 15 14 14 13 13 12 12 11 11 11 11 11
22 23 23 23 22 21 19 19 17 15 15 17 16 16 16 15 17 17 17 18 19 19 19 19 19 19 18 18 17 17 16 16 15 14 13 13 12 12 11 11 11 11 11 10
22 23 23 22 21 21 19 18 17 17 16 16 16 15 16 17 17 17 18 19 19 19 19 19 19 19 18 18 17 17 16 15 14 14 13 12 12 11 11 11 10 10 10 10
22 22 23 23 22 20 19 19 18 19 17 16 16 16 16 18 18 18 19 19 20 20 20 19 19 19 18 18 17 17 16 15 14 13 12 12 11 11 11 10 10 10 10 10
21 22 23 24 23 21 20 18 17 16 16 16 16 16 17 18 18 18 18 19 20 20 20 20 19 19 18 18 17 16 15 14 13 13 12 11 11 11 10 10 10 10 10 9
22 22 23 23 23 22 20 16 15 16 17 18 18 17 17 18 18 18 18 19 20 20 20 19 19 18 18 17 16 15 15 14 13 12 12 11 11 11 10 10 10 10 9 9
21 21 22 22 23 23 21 18 15 14 15 16 17 17 17 17 18 17 18 20 20 20 20 19 19 18 17 17 16 15 14 13 13 12 11 11 11 10 10 10 10 9 9 9
19 18 19 21 22 22 22 20 16 18 17 15 16 16 18 17 17 18 19 20 20 20 20 19 18 18 17 16 15 15 14 13 12 12 11 11 10 10 10 10 9 9 9 9
18 18 19 20 20 21 22 20 17 15 14 14 16 18 18 17 17 18 19 20 21 20 19 19 18 17 17 16 15 14 13 13 12 11 11 11 10 10 10 10 9 9 9 9
19 18 19 20 20 21 21 21 17 17 16 16 16 18 18 18 17 17 19 20 20 20 19 18 18 17 16 16 15 14 13 12 12 11 11 10 10 10 10 9 9 9 9 8
19 20 20 20 20 21 21 21 20 18 17 17 18 17 18 17 16 18 20 20 19 19 19 18 18 17 16 15 14 13 13 12 11 11 10 10 10 10 9 9 9 9 9 8
18 20 21 21 22 21 21 21 21 20 19 18 19 18 17 18 18 18 19 19 19 20 19 19 18 17 16 15 14 13 12 12 11 10 10 10 10 9 9 9 9 9 8 8
17 18 19 19 20 21 21 22 22 21 20 19 19 19 18 17 16 19 20 20 20 20 19 18 18 17 16 15 14 13 12 11 11 10 10 10 9 9 9 9 9 9 8 8
16 16 16 18 21 22 20 20 21 21 21 18 18 18 17 18 21 21 21 21 20 20 19 18 17 16 15 14 14 13 12 11 11 10 10 10 9 9 9 9 9 8 8 8
15 16 15 16 19 20 20 21 21 21 21 19 18 18 18 18 18 19 21 21 20 20 19 18 17 16 15 14 14 13 12 11 11 10 10 9 9 9 9 9 9 8 8 8
15 15 16 16 19 19 20 21 21 21 21 20 18 17 17 16 16 18 22 21 20 19 19 18 17 16 15 14 14 13 12 11 11 10 10 9 9 9 9 9 8 8 8 8
18 16 17 16 17 18 19 20 21 21 19 22 21 20 18 17 20 22 22 21 21 20 19 18 17 16 15 14 14 13 12 12 11 10 10 9 9 9 9 8 8 8 8 8
18 17 17 15 17 18 20 20 20 20 23 23 24 23 22 23 23 22 22 21 21 20 19 18 17 16 15 14 14 13 13 12 11 10 10 9 9 9 8 8 8 8 8 8
16 16 16 16 18 20 21 21 23 23 23 24 24 24 23 23 23 22 22 21 21 20 19 18 17 16 15 15 14 14 13 12 11 11 10 9 9 9 8 8 8 8 8 8
17 15 15 15 17 20 23 23 24 24 24 24 24 24 24 23 23 23 22 22 21 20 19 18 17 16 16 15 14 14 13 12 11 11 10 10 9 9 9 8 8 8 8 8
17 17 15 16 16 19 23 23 22 23 23 24 24 24 24 23 23 23 23 22 21 21 19 18 17 17 16 15 15 14 13 12 11 11 10 10 9 9 9 9 9 8 8 8
14 15 15 16 18 17 19 19 20 21 22 22 23 23 23 22 23 23 23 22 22 21 19 18 17 17 16 15 15 14 13 12 11 11 10 10 9 9 9 9 9 9 9 8
Wind_Speed
2 3 3 6 7 5 5 5 4 1 1 3 4 5 5 4 3 4 4 5 6 6 5 6 6 6 5 5 4 4 4 3 2 1 1 2 2 3 3 4 6 7 7 7
4 3 6 4 4 5 4 5 3 3 3 3 3 2 3 4 4 5 5 5 5 5 5 6 7 7 7 7 6 5 5 4 2 1 1 1 1 2 2 3 5 7 8 7
5 6 2 3 3 4 3 4 5 5 3 5 2 1 1 1 2 4 5 5 5 8 8 8 8 9 8 8 8 6 6 4 3 2 1 1 2 3 3 3 3 5 7 7
4 3 1 1 1 4 1 2 7 7 5 4 4 1 3 1 3 4 6 6 7 7 8 8 8 8 9 9 6 6 6 5 4 3 2 2 1 2 3 3 3 5 6 6
3 1 1 2 2 4 4 7 9 6 5 4 5 2 6 2 3 5 6 7 7 8 8 9 9 9 7 6 6 6 6 5 4 3 3 3 3 3 3 3 5 5 5 5
4 2 2 1 4 7 8 7 7 6 5 3 2 1 5 4 6 5 5 7 8 8 8 7 6 5 4 4 4 5 5 5 4 3 3 4 5 5 5 5 5 5 4 4
6 3 0 4 6 4 5 6 5 5 4 3 1 1 8 7 7 7 7 7 7 6 6 6 6 6 6 6 5 5 5 4 4 4 5 5 6 6 6 6 5 5 4 4
2 5 3 3 5 6 4 7 6 4 4 3 2 4 7 6 6 6 7 6 5 5 6 7 8 7 7 7 6 5 5 5 5 5 6 5 6 5 5 6 5 6 5 6
3 5 4 1 3 8 6 3 5 7 3 1 4 6 8 4 4 5 5 5 6 6 6 7 7 7 6 6 6 6 6 6 6 6 6 6 6 6 6 6 6 5 6 6
6 3 5 3 5 4 5 9 6 6 4 1 4 5 5 7 8 7 6 7 7 5 6 6 6 5 4 4 4 4 5 6 6 6 6 5 6 6 6 5 7 7 7 7
3 3 5 4 2 2 4 5 6 5 5 5 3 7 7 10 9 9 10 8 8 8 8 6 5 3 3 3 4 4 5 5 6 6 6 6 6 6 6 6 7 7 7 7
4 4 1 5 4 2 2 5 7 5 3 4 4 8 6 8 9 9 9 7 7 8 6 4 3 3 3 4 5 5 6 6 7 6 6 6 6 6 6 7 8 7 8 8
6 5 3 7 8 5 3 3 5 6 6 5 4 8 4 3 5 7 8 8 6 6 5 3 3 4 5 6 6 6 6 7 7 6 6 6 7 7 7 8 8 8 8 8
6 5 6 5 7 4 5 2 6 6 5 6 8 9 7 6 7 8 8 7 6 6 6 5 5 6 6 6 6 7 7 7 6 5 6 7 7 7 8 8 8 8 8 9
5 4 6 7 6 3 6 7 7 8 9 9 9 9 11 10 10 9 7 6 6 7 7 8 8 7 7 7 7 7 7 7 6 5 6 8 8 7 7 8 8 8 9 10
4 5 4 4 3 4 6 8 7 7 6 7 6 9 9 5 4 5 7 7 8 9 10 9 9 8 8 8 8 7 7 7 5 6 7 7 7 7 8 8 8 9 9 10
4 6 4 4 6 5 6 5 4 5 6 9 10 10 4 5 9 11 10 9 11 11 10 10 10 9 9 8 8 8 8 6 5 6 7 7 7 8 8 9 8 9 10 9
7 6 4 2 2 4 9 5 6 6 6 8 7 7 8 9 8 6 8 10 11 11 11 10 9 9 8 7 7 6 6 6 6 7 8 8 7 8 9 8 9 10 9 9
5 8 5 4 3 6 10 5 5 5 6 7 8 7 5 3 3 5 9 10 12 12 11 10 10 8 7 8 7 6 6 6 6 7 8 8 7 8 9 10 10 10 9 10
5 5 6 4 4 6 11 5 4 4 6 7 9 9 8 8 3 9 10 11 12 11 9 9 7 6 7 8 6 6 7 7 8 8 8 7 7 8 10 10 11 9 9 10
3 3 4 5 6 9 9 2 6 3 9 7 11 11 12 12 13 8 6 10 12 12 11 9 8 7 8 7 5 7 8 9 9 7 7 7 8 8 10 10 9 10 10 10
4 3 4 5 3 7 4 7 9 11 6 5 10 12 15 16 13 9 8 10 11 11 10 9 8 9 8 6 7 8 9 10 7 6 7 8 8 8 8 9 10 9 9 10
6 8 6 8 8 8 5 9 9 4 6 8 9 12 16 15 14 13 11 11 11 12 10 9 10 9 8 7 8 10 10 7 6 6 8 8 9 9 8 9 10 9 8 8
5 4 4 5 9 9 9 8 8 8 11 12 11 11 13 15 16 15 13 12 11 11 10 9 9 9 9 9 9 11 9 6 6 7 8 7 8 9 9 8 7 8 8 8
7 5 4 6 10 10 9 7 9 9 9 10 9 9 13 15 15 14 13 13 12 11 9 9 10 11 12 9 9 9 8 6 7 7 8 8 8 9 9 9 8 9 9 9
3 4 5 8 8 4 7 10 12 10 9 8 7 7 7 11 15 13 12 11 10 10 9 8 10 11 11 9 9 8 7 7 7 7 7 6 7 7 8 9 10 10 12 14
Wind_Direction
93 85 219 227 201 185 165 157 160 149 86 87 120 143 174 190 206 197 192 180 179 184 188 187 192 193 191 198 195 189 180 179 142 88 69 39 355 340 345 348 357 358 359 1
40 267 236 214 166 143 144 138 140 90 66 89 117 140 177 194 215 209 202 204 200 191 193 201 206 206 205 208 209 207 205 200 189 157 147 163 261 296 295 314 336 351 355 354
210 245 219 176 170 149 151 171 169 145 101 57 73 16 199 223 243 234 216 211 208 204 205 211 212 215 214 217 212 209 209 209 204 171 109 55 17 347 337 329 328 333 337 341
249 263 206 213 221 151 231 202 134 122 106 37 41 327 281 250 266 232 222 218 222 222 216 217 219 221 221 222 210 205 206 210 210 183 177 194 233 271 269 281 294 308 319 326
270 246 208 237 264 136 96 75 88 93 97 62 34 37 296 338 275 253 238 231 230 229 224 225 225 223 223 214 201 201 200 213 213 200 198 211 242 250 275 288 295 301 309 315
262 254 193 157 51 103 120 79 62 52 61 29 1 43 290 250 231 250 242 232 230 231 230 229 226 211 214 196 185 185 192 216 219 219 221 222 244 261 278 287 291 295 300 302
344 349 140 122 95 64 87 87 39 5 11 277 312 283 258 254 232 227 239 241 236 233 222 215 206 198 198 190 189 186 190 222 234 236 243 239 243 248 254 266 270 279 287 290
23 318 267 186 162 161 157 133 154 198 220 273 321 261 259 260 259 241 240 243 239 232 218 213 205 195 193 195 190 187 200 228 243 244 252 254 250 244 250 254 254 260 264 272
168 270 295 222 158 133 138 142 143 123 112 41 290 288 301 261 262 248 238 233 238 232 212 200 190 188 192 194 197 200 209 233 248 248 254 261 258 248 253 261 259 261 264 273
161 240 302 321 80 56 123 137 102 109 130 257 298 280 250 252 241 239 232 231 232 211 196 192 192 196 202 208 215 216 219 234 248 253 255 260 260 257 259 266 269 269 271 274
132 160 315 10 82 167 123 99 102 104 141 150 245 270 226 221 221 221 228 226 212 202 202 204 206 211 215 226 231 237 243 250 259 259 260 267 269 269 271 269 270 273 277 279
124 117 299 291 293 287 164 155 148 145 186 168 182 265 258 231 233 221 226 223 210 207 208 211 217 223 234 245 251 253 257 256 259 261 265 267 272 277 276 274 275 277 278 279
133 102 44 352 344 356 38 112 124 121 115 151 176 263 292 262 228 221 221 222 213 211 211 216 224 233 243 250 256 260 262 262 266 267 268 275 278 277 274 275 279 281 279 281
118 110 152 191 226 261 295 203 155 136 151 194 221 249 282 249 229 227 223 220 211 215 217 219 233 243 249 253 257 264 271 268 268 267 266 272 274 272 273 276 279 280 280 280
115 157 206 231 238 237 251 253 196 192 190 189 228 229 248 233 221 222 219 211 210 223 225 225 232 242 250 258 263 263 268 271 265 265 269 270 274 274 274 277 278 281 280 281
113 163 178 280 266 267 260 262 221 207 197 214 245 259 250 237 189 216 220 209 219 230 231 233 236 240 244 248 255 261 264 265 260 261 268 274 279 279 277 278 281 284 283 282
131 140 142 260 305 353 302 266 215 211 205 187 214 239 218 188 204 216 217 212 220 228 229 230 232 232 236 241 244 251 256 263 260 262 270 276 276 278 279 283 286 285 284 282
140 130 144 190 29 262 253 253 217 219 236 208 226 241 209 211 218 230 212 207 221 226 227 229 230 231 236 237 240 246 254 256 259 266 272 276 276 279 282 283 284 283 282 282
143 137 130 139 193 274 294 272 180 184 261 219 217 231 198 114 48 296 230 210 218 220 218 222 220 219 226 235 237 243 255 256 261 266 269 273 274 279 284 286 285 285 284 285
77 104 124 141 171 232 252 263 165 121 276 236 197 202 170 131 181 252 236 210 221 225 221 220 215 210 226 237 227 231 250 256 259 261 265 270 272 275 280 282 284 284 282 284
50 74 149 178 213 255 255 226 130 162 244 231 196 195 174 186 210 225 222 207 212 216 217 210 201 209 225 227 207 231 247 252 254 258 264 271 273 274 277 278 278 283 286 287
191 180 195 152 189 260 247 150 182 219 240 222 205 200 195 214 227 231 233 221 212 212 212 200 200 220 228 215 206 232 246 250 255 256 263 271 277 279 284 280 284 284 285 288
200 193 189 189 218 245 238 218 242 242 243 239 218 215 207 218 230 230 228 225 218 213 209 198 202 221 232 220 208 229 245 247 247 252 262 273 282 284 282 280 284 290 287 284
264 175 171 241 267 269 273 264 264 241 235 246 232 221 204 214 227 228 225 221 216 213 208 199 199 217 234 230 220 229 242 241 238 253 267 277 286 291 291 284 278 281 284 285
242 195 209 256 275 298 303 304 302 296 278 271 261 234 219 219 229 227 224 219 213 208 202 194 201 217 231 232 231 234 235 226 236 253 266 278 282 286 292 291 281 277 272 264
253 204 209 245 257 254 293 322 331 323 311 302 291 282 258 228 236 236 231 223 209 203 194 195 208 222 233 233 239 239 227 215 228 252 266 274 282 288 290 298 303 281 266 271
Height
1504 1509 1512 1508 1506 1507 1510 1516 1521 1520 1518 1521 1524 1526 1526 1527 1528 1528 1528 1528 1529 1530 1532 1533 1535 1536 1537 1538 1539 1539 1540 1540 1539 1538 1537 1535 1533 1531 1528 1526 1524 1522 1521 1520
1509 1510 1502 1500 1502 1505 1510 1517 1520 1521 1519 1522 1527 1527 1526 1527 1527 1527 1527 1528 1528 1530 1531 1532 1534 1535 1536 1537 1537 1538 1538 1538 1537 1536 1535 1533 1531 1528 1526 1524 1521 1520 1518 1517
1508 1504 1498 1500 1503 1507 1511 1515 1517 1522 1523 1524 1527 1530 1529 1526 1526 1526 1526 1527 1528 1528 1529 1531 1532 1533 1534 1535 1536 1536 1537 1536 1536 1534 1532 1531 1528 1526 1524 1521 1519 1517 1516 1514
1504 1499 1499 1501 1503 1505 1514 1508 1511 1518 1527 1537 1533 1542 1531 1528 1526 1525 1524 1525 1526 1527 1528 1530 1531 1532 1532 1533 1534 1534 1534 1534 1533 1532 1530 1528 1526 1523 1521 1519 1517 1515 1513 1512
1504 1500 1500 1503 1502 1503 1512 1510 1514 1521 1529 1537 1538 1543 1537 1528 1527 1523 1522 1522 1523 1525 1526 1527 1529 1530 1531 1532 1532 1532 1532 1531 1530 1529 1527 1525 1523 1521 1518 1516 1514 1512 1511 1509
1501 1498 1498 1500 1501 1502 1509 1514 1520 1529 1535 1546 1544 1547 1541 1531 1524 1521 1519 1520 1521 1522 1524 1525 1526 1527 1528 1529 1529 1529 1529 1528 1527 1526 1524 1522 1520 1518 1515 1513 1511 1509 1507 1505
1506 1501 1498 1499 1505 1508 1511 1525 1542 1545 1553 1551 1543 1545 1539 1521 1518 1518 1517 1517 1518 1520 1521 1522 1523 1524 1525 1526 1526 1526 1526 1525 1524 1523 1521 1519 1517 1515 1512 1510 1508 1506 1504 1502
1516 1517 1501 1498 1502 1509 1513 1521 1542 1549 1553 1551 1544 1545 1529 1515 1513 1513 1514 1515 1516 1517 1518 1519 1520 1522 1523 1523 1524 1524 1523 1522 1521 1519 1517 1515 1513 1511 1509 1507 1505 1503 1500 1498
1516 1514 1498 1496 1496 1502 1514 1521 1524 1541 1547 1551 1546 1537 1522 1511 1511 1511 1511 1512 1513 1514 1516 1517 1518 1519 1520 1521 1521 1521 1520 1518 1517 1515 1514 1512 1510 1508 1506 1504 1501 1499 1497 1494
1506 1512 1502 1497 1497 1501 1506 1517 1531 1541 1551 1552 1544 1539 1532 1515 1512 1510 1510 1510 1510 1512 1513 1515 1516 1517 1518 1518 1518 1517 1516 1515 1513 1512 1510 1508 1506 1504 1502 1500 1497 1495 1493 1490
1504 1513 1509 1503 1503 1505 1510 1520 1531 1542 1542 1552 1553 1542 1513 1509 1506 1507 1506 1507 1508 1510 1512 1513 1515 1516 1516 1516 1515 1514 1513 1511 1510 1508 1507 1505 1503 1501 1498 1496 1493 1491 1488 1486
1506 1516 1520 1510 1501 1500 1502 1509 1523 1533 1540 1545 1548 1538 1502 1502 1501 1502 1503 1504 1506 1508 1510 1512 1513 1514 1514 1513 1512 1511 1510 1508 1506 1505 1503 1501 1499 1497 1494 1492 1489 1486 1484 1481
1505 1516 1528 1525 1518 1506 1505 1509 1516 1526 1538 1546 1545 1529 1500 1499 1499 1500 1501 1503 1505 1507 1509 1510 1511 1511 1511 1511 1509 1508 1506 1504 1503 1501 1499 1497 1495 1492 1490 1487 1484 1482 1479 1476
1500 1514 1523 1528 1523 1511 1509 1507 1515 1520 1533 1537 1531 1518 1503 1499 1498 1498 1499 1501 1503 1505 1507 1508 1508 1509 1508 1507 1506 1504 1502 1500 1499 1497 1495 1493 1490 1488 1485 1482 1479 1476 1473 1470
1498 1509 1510 1510 1506 1507 1506 1504 1506 1511 1514 1521 1514 1511 1500 1495 1494 1494 1496 1499 1501 1502 1504 1505 1505 1505 1505 1504 1502 1500 1498 1496 1494 1492 1490 1488 1485 1483 1480 1477 1474 1471 1468 1465
1498 1505 1506 1507 1502 1504 1504 1498 1498 1501 1504 1507 1505 1503 1490 1490 1492 1494 1495 1496 1498 1499 1501 1501 1502 1502 1501 1500 1498 1496 1494 1492 1490 1488 1486 1483 1481 1478 1475 1472 1469 1465 1462 1459
1502 1506 1513 1516 1507 1503 1508 1496 1494 1494 1494 1498 1501 1494 1487 1489 1489 1489 1491 1493 1494 1496 1497 1498 1498 1498 1497 1495 1494 1492 1490 1488 1486 1484 1481 1479 1476 1473 1470 1466 1463 1460 1456 1453
1501 1508 1516 1518 1511 1516 1505 1488 1487 1489 1488 1489 1488 1486 1485 1484 1485 1487 1489 1490 1491 1492 1493 1494 1494 1493 1492 1491 1489 1488 1486 1484 1481 1479 1477 1474 1471 1468 1464 1461 1458 1454 1451 1447
1495 1504 1516 1522 1519 1512 1497 1485 1485 1488 1488 1482 1483 1482 1483 1484 1486 1485 1485 1486 1487 1488 1489 1489 1489 1489 1488 1487 1485 1483 1481 1479 1477 1474 1472 1469 1466 1462 1459 1455 1452 1449 1445 1442
1497 1500 1512 1519 1518 1518 1497 1480 1480 1485 1490 1477 1478 1479 1481 1483 1491 1483 1480 1481 1482 1483 1484 1484 1485 1484 1483 1482 1481 1479 1477 1475 1472 1470 1467 1464 1461 1457 1454 1450 1447 1444 1440 1437
1502 1505 1510 1515 1516 1506 1483 1479 1481 1496 1491 1471 1472 1473 1475 1477 1476 1475 1475 1476 1477 1478 1479 1480 1480 1480 1479 1478 1476 1474 1472 1470 1468 1465 1462 1459 1456 1452 1448 1445 1442 1438 1435 1432
1500 1505 1508 1515 1514 1505 1477 1479 1482 1478 1468 1468 1467 1467 1468 1468 1468 1470 1471 1472 1472 1473 1474 1474 1475 1475 1475 1473 1472 1469 1467 1465 1463 1460 1457 1454 1451 1447 1443 1440 1436 1433 1430 1427
1495 1494 1496 1499 1494 1478 1474 1474 1470 1468 1467 1464 1463 1462 1463 1463 1463 1464 1465 1466 1467 1468 1469 1469 1470 1470 1469 1468 1467 1465 1463 1461 1458 1455 1452 1449 1446 1442 1439 1435 1432 1428 1425 1422
1486 1484 1488 1488 1479 1472 1470 1468 1465 1464 1462 1460 1459 1458 1457 1457 1457 1458 1459 1460 1461 1462 1463 1464 1465 1464 1464 1463 1462 1460 1458 1456 1453 1451 1448 1445 1441 1438 1434 1431 1427 1423 1420 1417
1483 1482 1485 1484 1475 1470 1466 1465 1463 1460 1457 1455 1454 1453 1452 1452 1452 1452 1452 1453 1454 1456 1458 1459 1459 1459 1459 1459 1457 1455 1453 1451 1449 1446 1443 1440 1436 1433 1429 1426 1422 1419 1415 1413
1481 1482 1483 1480 1471 1471 1468 1465 1460 1456 1453 1451 1450 1449 1448 1447 1447 1446 1446 1447 1448 1450 1452 1454 1455 1455 1455 1454 1452 1451 1449 1447 1444 1441 1438 1435 1432 1428 1424 1421 1417 1414 1411 1408